Wind_Speed
22 22 22 23 24 24 24 23 23 22 24 25 25 25 25 25 25 24 23 22 21 21 20 20 20 19 19 18 17 17 16 16 15 15 14 13 13 12 12 11 11 11 11 11 10 10 10 9 9
23 24 24 25 26 25 25 24 24 24 25 26 26 26 26 26 26 26 25 24 24 23 22 22 22 21 21 20 19 18 18 18 17 17 16 15 15 15 14 13 13 13 13 12 12 11 11 10 10
25 26 27 27 27 27 26 26 26 26 27 27 27 28 27 27 28 28 27 26 26 25 25 25 24 23 23 23 22 20 20 20 19 19 19 18 17 16 16 16 15 15 14 13 13 13 12 12 11
27 28 29 29 28 28 28 28 29 28 28 29 29 30 29 28 29 29 29 29 28 27 27 27 26 25 25 25 24 23 22 21 21 21 20 20 19 18 18 18 17 17 16 16 15 14 14 14 13
29 30 30 30 28 28 29 31 30 30 30 30 31 31 31 31 31 30 30 30 29 29 28 29 28 28 27 27 26 25 25 24 23 22 22 21 21 21 20 20 19 19 18 18 17 16 15 15 15
30 31 31 31 29 29 30 31 32 32 32 32 33 33 33 33 33 32 32 32 31 31 30 30 30 29 29 29 28 28 27 26 26 25 24 23 23 22 22 21 21 20 20 20 19 18 17 17 17
30 31 32 32 31 31 31 32 33 33 34 34 35 36 35 35 35 34 34 34 34 33 33 32 32 31 31 31 30 30 30 29 28 27 26 25 25 24 23 23 23 22 22 22 21 21 20 19 18
31 32 32 33 33 33 33 33 34 35 35 36 36 36 37 37 37 37 36 35 35 35 35 35 34 33 33 33 32 32 31 31 30 29 29 28 27 26 25 25 24 24 24 24 23 23 22 22 21
33 34 33 33 34 34 34 35 35 36 36 37 38 38 38 38 39 39 39 38 38 38 37 36 36 35 35 35 35 34 33 32 32 31 30 30 29 28 27 26 26 26 26 25 25 25 24 23 22
34 35 34 35 35 36 36 36 36 37 37 38 39 40 40 39 39 39 39 39 39 39 39 38 37 37 37 37 37 37 36 35 34 33 32 32 31 30 29 28 28 28 28 27 26 26 26 25 24
35 35 35 36 37 37 37 37 37 38 38 39 40 40 41 41 41 40 39 40 40 40 39 39 38 38 38 38 38 38 38 37 36 36 35 34 33 32 31 30 30 30 29 29 28 28 27 27 26
35 35 36 36 37 37 38 38 38 39 39 40 41 41 41 41 41 41 40 40 40 41 40 40 39 39 39 38 39 39 39 39 39 38 37 36 36 35 33 32 32 31 31 30 30 29 28 28 27
36 36 37 37 38 39 39 40 40 40 40 41 41 41 42 42 42 42 42 42 42 42 42 42 41 40 40 40 39 39 39 39 40 40 39 39 38 37 35 34 34 33 33 32 32 31 30 29 29
36 36 37 38 39 40 41 41 41 41 41 41 41 42 42 42 42 43 44 44 43 42 42 42 42 42 42 41 41 40 40 40 41 41 41 41 40 39 37 37 36 35 34 34 34 33 33 32 31
36 37 37 38 40 41 42 42 42 42 42 42 41 42 43 43 43 43 44 45 44 43 43 42 42 42 42 42 42 41 40 40 40 41 42 41 41 40 39 39 38 38 37 36 35 35 35 34 33
37 38 38 39 40 40 42 42 41 43 43 42 42 42 42 43 43 43 44 44 45 45 44 44 43 43 43 44 43 43 42 42 41 41 41 41 41 40 40 39 39 39 38 37 37 37 36 35 35
38 39 39 40 40 40 41 41 40 41 42 42 42 42 42 42 42 42 43 44 45 45 45 44 44 43 44 44 44 44 44 44 43 42 42 42 41 41 40 40 40 40 39 38 38 37 37 37 36
38 39 40 40 40 40 40 40 39 40 41 41 41 41 42 42 41 41 42 43 44 45 46 45 45 45 45 46 45 45 46 46 45 43 43 44 43 42 42 42 41 41 41 40 39 38 38 38 38
38 38 39 39 39 40 39 39 39 40 40 39 40 40 40 41 40 41 42 42 43 44 46 46 47 46 47 47 47 46 47 47 46 47 46 45 45 45 44 44 44 43 42 42 41 41 40 39 39
37 37 37 37 38 39 39 39 39 39 39 39 39 39 40 40 40 41 42 43 43 45 46 46 47 47 48 48 48 49 48 48 47 47 47 47 47 46 45 45 46 45 44 44 43 43 42 42 41
37 36 36 37 37 39 40 40 38 38 38 39 39 38 39 40 40 41 43 44 44 44 46 47 48 48 49 50 51 50 50 49 48 49 49 49 49 48 48 45 46 47 47 47 46 45 45 44 43
36 35 36 37 38 38 39 41 38 38 38 38 38 39 39 39 40 41 43 44 45 46 46 47 48 49 49 50 52 52 51 51 50 50 51 51 51 51 50 49 48 48 49 49 48 48 48 47 46
35 35 36 37 38 39 38 41 39 38 37 38 38 38 39 39 40 41 42 43 45 46 47 48 49 49 50 51 51 52 52 53 52 52 52 53 53 53 53 52 52 51 51 50 49 50 49 49 48
35 36 37 37 37 39 38 39 40 37 37 37 38 38 39 39 40 40 41 42 44 46 47 48 49 50 50 51 52 52 53 53 54 54 54 54 54 54 54 54 54 53 52 51 51 51 50 50 49
34 35 37 38 39 40 38 39 39 37 37 37 38 39 39 39 40 40 41 42 43 44 46 48 49 49 50 51 52 53 53 54 55 55 56 56 56 56 56 56 55 54 54 53 54 52 52 51 51
33 34 36 38 39 40 39 40 39 38 38 38 38 39 39 40 40 41 41 42 43 44 45 46 47 48 49 50 51 52 53 54 54 55 56 56 56 58 57 57 56 55 55 55 55 54 53 53 52
33 33 34 36 39 40 40 40 39 38 38 37 37 37 38 39 40 41 42 42 43 43 44 45 46 47 48 49 51 52 53 53 54 54 55 56 56 57 57 57 57 56 56 55 55 55 54 53 52
33 34 34 35 37 38 39 38 37 37 36 36 36 37 37 39 40 40 41 42 43 44 44 45 46 47 48 48 50 52 53 54 54 53 54 55 56 57 56 57 57 57 57 56 55 55 55 56 54
33 33 35 36 37 38 39 37 35 35 36 37 37 36 37 37 38 39 40 41 42 43 44 45 46 47 48 49 49 51 51 52 53 53 54 54 54 56 56 56 57 56 57 57 57 56 55 55 55
34 34 34 35 37 39 40 38 35 35 35 36 37 37 37 37 37 38 39 40 41 42 44 45 45 46 48 49 49 50 50 51 51 53 54 55 55 55 56 56 56 56 57 57 57 58 57 56 56
Wind_Direction
254 254 254 254 254 254 254 254 254 254 252 252 252 251 250 250 249 250 248 248 248 246 245 246 246 246 245 246 247 248 249 249 249 250 250 249 250 252 251 251 252 254 256 257 257 255 255 255 253
256 256 255 255 255 256 256 256 256 256 255 253 253 252 251 251 251 251 250 249 249 248 247 247 246 246 245 245 246 246 249 251 250 251 252 250 250 251 251 251 253 254 255 254 254 254 254 253 253
256 256 256 256 257 258 259 260 259 258 256 254 253 252 253 252 252 252 252 251 250 249 249 248 247 246 245 245 246 248 249 250 249 250 251 252 251 251 251 251 253 254 254 252 252 253 253 253 252
258 257 257 258 258 260 261 261 260 258 257 256 254 253 253 254 253 253 252 251 250 250 249 248 248 247 246 246 247 249 249 250 250 251 251 252 252 251 251 250 251 253 253 252 252 253 253 253 253
260 258 259 259 260 260 261 261 261 260 259 257 256 255 254 254 253 253 252 251 251 250 249 247 247 248 248 248 248 249 249 249 250 251 251 251 252 252 252 251 250 251 252 252 250 251 251 252 252
262 261 260 260 260 260 261 261 261 260 260 258 257 255 254 254 254 253 253 252 251 250 249 248 246 246 247 247 248 248 249 249 250 251 252 253 253 252 252 252 251 251 251 251 250 249 249 251 251
263 263 262 261 260 260 261 261 262 260 260 258 257 256 254 254 254 254 253 253 252 250 248 248 246 245 245 246 246 247 247 248 249 250 251 252 253 252 251 252 252 252 251 250 249 248 248 249 249
264 265 264 264 263 262 261 262 262 261 259 259 258 257 256 254 254 253 253 253 252 251 250 249 247 245 245 245 246 247 247 248 248 249 249 249 251 251 251 252 253 252 251 250 250 250 250 249 249
265 266 266 266 265 264 262 261 261 261 260 259 260 259 257 255 254 254 253 252 252 251 250 249 248 247 246 245 246 247 248 248 248 248 248 249 250 250 251 251 252 252 252 251 250 250 251 250 249
268 269 269 267 266 265 262 261 260 260 260 260 259 259 258 256 255 254 253 252 252 251 250 249 248 247 247 246 246 246 247 247 247 248 248 249 249 249 250 251 251 252 252 252 252 251 250 250 250
270 270 270 268 267 265 263 262 261 261 260 260 260 259 259 257 255 255 254 253 252 251 250 249 248 247 246 246 246 246 246 247 247 247 248 249 248 249 249 250 251 252 252 252 251 251 250 250 249
273 272 271 269 268 266 265 263 262 262 261 260 259 259 258 256 254 254 253 252 251 250 249 249 248 247 246 246 247 246 246 246 246 247 248 248 248 249 248 248 250 250 250 251 250 249 250 250 249
274 273 272 270 269 267 266 264 262 261 261 260 259 259 258 257 255 254 252 251 251 249 248 248 247 247 246 245 246 247 246 246 247 247 247 247 248 248 248 248 248 248 249 249 248 248 249 249 248
275 274 272 271 270 268 266 265 263 261 260 261 260 259 258 257 256 254 252 251 251 249 248 247 247 247 246 245 246 247 248 247 246 246 248 248 247 247 247 247 246 247 248 248 248 249 248 249 249
275 274 273 272 271 270 268 266 264 262 261 260 259 258 258 257 256 254 253 252 251 249 248 247 247 247 246 245 245 246 246 247 246 246 247 247 247 246 247 247 247 248 249 249 248 248 248 248 248
275 274 273 272 272 271 269 268 265 262 260 259 258 258 257 257 256 254 253 252 250 249 249 248 247 247 246 245 245 245 246 247 247 247 247 246 246 247 247 248 248 248 248 249 249 248 248 248 248
276 276 275 274 273 272 269 268 265 263 260 259 258 258 258 257 256 255 253 252 250 249 249 249 248 247 246 246 245 245 246 247 247 247 246 246 247 247 247 247 248 248 247 247 248 247 247 248 248
278 277 276 275 273 270 268 266 264 263 261 259 258 258 257 257 256 254 253 252 251 250 249 249 248 248 246 246 246 247 247 246 246 247 248 248 248 247 247 248 248 247 247 246 246 246 247 248 248
281 279 278 275 273 269 266 265 264 263 262 259 258 259 258 256 256 254 253 252 251 250 249 249 249 248 247 246 246 248 247 247 246 247 248 249 249 248 248 249 248 247 246 246 247 247 247 248 249
280 278 278 276 273 270 267 265 264 263 262 260 259 259 257 256 255 255 254 253 252 251 250 249 249 249 248 247 247 247 247 247 247 247 248 249 249 249 249 250 248 247 246 247 247 247 247 248 249
280 279 277 275 273 271 269 267 265 263 263 261 260 259 259 257 256 255 254 254 253 252 250 249 248 248 249 248 247 247 246 247 248 248 248 249 249 249 248 248 249 248 248 248 248 248 248 249 250
280 279 278 276 274 272 270 270 266 265 265 263 262 261 260 259 258 257 255 254 254 253 252 251 249 248 249 248 247 247 247 248 248 249 250 250 250 249 249 250 250 250 250 249 248 249 249 249 250
280 279 278 276 274 272 271 271 269 267 266 264 263 262 261 260 260 259 258 256 255 253 252 251 251 249 248 248 248 249 248 248 248 249 249 249 249 249 249 250 251 249 249 249 249 249 249 248 250
281 279 277 275 275 273 272 272 271 269 268 266 264 263 262 262 261 260 260 258 256 254 253 252 251 250 249 248 248 249 249 249 249 249 249 249 249 249 249 249 250 250 250 249 249 248 248 248 249
282 281 279 277 276 276 275 274 273 272 271 269 267 266 264 263 262 261 260 259 258 256 255 253 252 251 250 249 249 249 250 250 250 250 249 249 249 249 249 249 249 248 250 250 249 249 249 247 248
286 283 282 281 280 280 278 277 276 275 273 271 269 268 267 264 263 262 261 260 259 258 257 255 253 252 252 251 250 250 250 251 251 251 250 250 250 250 249 250 249 249 249 249 249 249 249 248 249
287 285 284 282 281 281 280 280 279 276 275 274 272 270 268 266 264 263 263 261 260 260 258 256 254 253 252 252 252 250 251 251 252 251 251 251 250 250 250 250 250 249 249 249 248 249 248 247 248
289 287 285 283 283 283 283 283 283 280 277 275 274 271 270 268 266 264 264 263 262 261 259 257 256 254 252 252 252 252 252 252 252 252 251 251 250 250 250 250 250 249 249 249 249 248 248 248 248
290 287 285 283 282 283 285 284 284 283 280 276 273 271 270 268 267 265 264 263 262 261 259 258 257 255 253 253 253 252 253 253 252 252 252 251 250 250 250 251 250 249 249 249 248 248 248 248 248
291 289 287 285 284 284 284 285 285 284 281 277 273 270 269 269 268 267 266 264 262 261 260 259 258 257 255 254 254 253 253 253 252 251 251 251 251 250 249 249 249 249 249 249 248 248 249 249 249
Height
5798 5799 5801 5802 5803 5803 5805 5807 5808 5809 5810 5811 5812 5813 5814 5816 5818 5822 5821 5822 5823 5824 5826 5827 5828 5829 5831 5832 5833 5834 5835 5837 5838 5839 5839 5840 5842 5842 5843 5844 5845 5846 5847 5848 5849 5850 5851 5852 5853
5794 5795 5797 5797 5797 5798 5801 5802 5804 5805 5806 5807 5807 5808 5809 5811 5812 5814 5816 5817 5818 5820 5822 5823 5824 5825 5827 5828 5829 5830 5832 5833 5835 5836 5837 5838 5839 5840 5841 5842 5843 5844 5845 5846 5847 5848 5849 5850 5851
5789 5790 5791 5792 5793 5795 5797 5798 5799 5799 5800 5801 5802 5803 5805 5806 5807 5809 5811 5812 5814 5816 5817 5819 5820 5821 5822 5824 5826 5827 5828 5829 5831 5832 5833 5835 5836 5837 5838 5839 5840 5841 5842 5843 5844 5845 5847 5848 5849
5784 5785 5786 5787 5788 5791 5792 5793 5793 5794 5795 5796 5797 5798 5799 5801 5802 5804 5805 5807 5809 5810 5812 5814 5815 5816 5818 5819 5821 5823 5824 5825 5827 5828 5830 5831 5832 5834 5835 5836 5837 5838 5839 5840 5842 5843 5844 5845 5846
5778 5779 5780 5781 5783 5785 5785 5786 5787 5788 5788 5790 5790 5792 5793 5795 5796 5798 5799 5801 5803 5805 5806 5808 5810 5811 5813 5814 5816 5818 5819 5821 5822 5824 5825 5827 5828 5830 5831 5832 5834 5835 5836 5837 5839 5840 5841 5842 5844
5772 5772 5773 5775 5777 5779 5779 5779 5780 5781 5782 5783 5784 5785 5787 5788 5790 5791 5793 5795 5796 5799 5800 5802 5804 5806 5807 5809 5811 5812 5814 5816 5818 5819 5821 5822 5824 5825 5827 5828 5830 5831 5833 5834 5835 5837 5838 5839 5841
5766 5766 5767 5769 5771 5772 5773 5772 5772 5773 5774 5775 5776 5777 5779 5781 5782 5784 5786 5787 5789 5791 5793 5795 5797 5799 5801 5803 5805 5807 5808 5810 5812 5814 5816 5817 5819 5820 5822 5824 5825 5827 5828 5830 5832 5833 5834 5836 5837
5759 5760 5760 5762 5763 5765 5765 5765 5765 5765 5767 5767 5768 5769 5772 5773 5775 5776 5778 5780 5782 5784 5786 5788 5790 5792 5794 5796 5798 5800 5802 5804 5806 5808 5810 5812 5814 5815 5817 5819 5820 5822 5824 5826 5827 5829 5830 5832 5833
5751 5753 5753 5755 5755 5756 5757 5757 5757 5757 5758 5759 5760 5761 5763 5764 5766 5768 5769 5771 5773 5775 5778 5780 5782 5785 5787 5789 5791 5793 5796 5798 5800 5802 5804 5806 5808 5810 5812 5814 5815 5817 5819 5821 5823 5824 5826 5828 5829
5744 5744 5746 5747 5746 5747 5747 5748 5748 5749 5750 5751 5751 5752 5753 5755 5757 5759 5761 5762 5764 5766 5769 5771 5774 5776 5779 5781 5784 5786 5788 5791 5793 5795 5798 5800 5802 5804 5806 5808 5810 5812 5814 5815 5817 5819 5821 5823 5824
5736 5737 5737 5737 5737 5737 5738 5738 5739 5740 5741 5742 5742 5743 5744 5746 5748 5749 5751 5753 5755 5757 5760 5762 5765 5767 5770 5773 5776 5778 5781 5783 5786 5788 5791 5793 5795 5797 5800 5802 5804 5806 5808 5810 5812 5814 5815 5817 5819
5728 5728 5728 5727 5727 5728 5728 5729 5729 5730 5732 5732 5732 5733 5734 5735 5737 5740 5741 5743 5745 5747 5750 5753 5756 5759 5761 5764 5767 5770 5772 5775 5778 5780 5783 5785 5788 5790 5792 5795 5797 5799 5801 5803 5806 5808 5810 5812 5814
5719 5719 5718 5718 5717 5718 5718 5718 5719 5721 5721 5721 5722 5723 5724 5725 5727 5729 5730 5732 5735 5737 5740 5743 5746 5749 5752 5755 5758 5761 5764 5767 5769 5772 5775 5777 5780 5782 5784 5787 5790 5792 5794 5797 5799 5802 5804 5806 5808
5710 5709 5708 5708 5707 5707 5707 5708 5708 5710 5710 5710 5711 5712 5713 5714 5716 5718 5720 5722 5724 5727 5730 5733 5736 5740 5743 5746 5749 5752 5755 5757 5760 5763 5766 5768 5771 5774 5776 5779 5781 5784 5787 5789 5792 5794 5797 5799 5801
5699 5699 5699 5698 5697 5696 5696 5697 5698 5699 5698 5699 5700 5701 5702 5704 5705 5707 5709 5711 5714 5717 5720 5723 5726 5729 5733 5736 5739 5743 5745 5748 5751 5754 5756 5759 5762 5764 5767 5770 5773 5776 5778 5781 5784 5786 5789 5792 5794
5690 5689 5689 5689 5686 5685 5686 5687 5688 5686 5687 5688 5689 5690 5691 5693 5695 5697 5698 5700 5703 5706 5709 5712 5716 5719 5722 5726 5729 5733 5735 5738 5741 5744 5746 5749 5752 5755 5758 5761 5764 5767 5769 5772 5775 5778 5781 5784 5787
5679 5678 5678 5678 5675 5674 5673 5675 5676 5675 5675 5677 5678 5679 5681 5683 5684 5686 5688 5690 5692 5695 5699 5702 5705 5709 5712 5715 5719 5723 5725 5728 5731 5734 5737 5740 5743 5746 5749 5752 5755 5758 5760 5763 5766 5769 5772 5776 5778
5668 5667 5666 5665 5664 5663 5662 5663 5664 5664 5664 5666 5667 5669 5670 5672 5674 5675 5676 5679 5681 5684 5688 5691 5695 5698 5701 5705 5708 5712 5715 5718 5721 5724 5727 5730 5733 5736 5739 5742 5745 5748 5751 5753 5757 5760 5763 5767 5770
5657 5655 5654 5654 5652 5651 5651 5652 5653 5653 5654 5655 5657 5658 5660 5661 5663 5664 5666 5668 5671 5674 5677 5680 5684 5687 5690 5694 5697 5701 5704 5707 5711 5714 5717 5720 5723 5726 5729 5732 5735 5738 5741 5744 5747 5750 5753 5757 5760
5647 5645 5644 5643 5641 5640 5640 5641 5642 5643 5644 5645 5647 5648 5649 5650 5652 5654 5655 5657 5660 5663 5666 5669 5672 5676 5679 5682 5686 5689 5693 5696 5699 5703 5706 5709 5712 5715 5718 5722 5724 5727 5730 5733 5737 5740 5743 5747 5750
5638 5636 5634 5633 5631 5630 5630 5631 5633 5634 5634 5635 5636 5638 5639 5640 5641 5643 5645 5646 5649 5651 5654 5657 5660 5664 5667 5670 5673 5677 5681 5685 5688 5691 5695 5698 5701 5703 5707 5710 5713 5716 5719 5722 5725 5729 5733 5736 5740
5629 5627 5625 5623 5622 5621 5621 5620 5624 5624 5625 5625 5626 5627 5628 5630 5630 5632 5633 5635 5637 5639 5642 5645 5648 5651 5654 5657 5661 5665 5669 5673 5677 5680 5682 5685 5688 5691 5694 5698 5701 5704 5707 5710 5714 5717 5721 5725 5728
5619 5618 5616 5614 5612 5612 5612 5611 5614 5615 5615 5616 5617 5617 5618 5619 5620 5621 5622 5623 5625 5627 5630 5633 5636 5639 5642 5645 5649 5653 5656 5660 5664 5667 5669 5672 5675 5678 5682 5685 5688 5691 5695 5698 5701 5705 5709 5713 5717
5610 5609 5607 5605 5603 5603 5604 5602 5603 5605 5606 5606 5606 5607 5607 5608 5609 5609 5610 5611 5613 5615 5617 5620 5623 5626 5629 5633 5636 5639 5643 5647 5650 5653 5656 5659 5662 5665 5668 5671 5675 5678 5681 5685 5689 5692 5696 5700 5705
5602 5601 5598 5596 5594 5594 5594 5592 5594 5596 5596 5596 5596 5596 5596 5597 5598 5599 5599 5600 5602 5603 5605 5608 5610 5613 5616 5619 5623 5626 5629 5633 5636 5639 5642 5645 5648 5652 5655 5658 5661 5664 5668 5672 5675 5679 5683 5687 5692
5594 5592 5590 5587 5585 5584 5584 5582 5585 5585 5585 5585 5585 5585 5585 5586 5587 5588 5588 5589 5590 5592 5593 5595 5598 5601 5603 5606 5610 5613 5616 5619 5622 5625 5628 5631 5634 5637 5640 5644 5647 5651 5654 5658 5661 5665 5669 5674 5678
5585 5583 5582 5579 5576 5574 5574 5574 5575 5576 5575 5575 5574 5574 5574 5574 5575 5576 5577 5578 5578 5579 5581 5583 5585 5588 5591 5594 5596 5599 5602 5605 5608 5611 5613 5616 5620 5623 5626 5629 5633 5637 5640 5643 5647 5652 5656 5660 5665
5578 5575 5573 5570 5567 5564 5564 5564 5566 5565 5564 5564 5563 5563 5563 5563 5564 5564 5565 5566 5567 5567 5569 5571 5573 5575 5578 5580 5583 5586 5588 5591 5593 5596 5599 5602 5605 5608 5612 5615 5619 5623 5626 5630 5634 5638 5642 5646 5651
5569 5567 5564 5561 5558 5556 5554 5558 5556 5555 5554 5553 5553 5552 5552 5552 5553 5553 5553 5554 5555 5556 5557 5559 5560 5562 5564 5567 5569 5571 5574 5577 5579 5582 5585 5588 5591 5594 5598 5601 5604 5608 5612 5616 5620 5624 5628 5632 5637
5560 5558 5556 5554 5551 5547 5545 5549 5548 5546 5544 5543 5542 5542 5541 5542 5542 5542 5542 5542 5543 5544 5545 5546 5547 5549 5551 5553 5555 5557 5560 5562 5564 5567 5570 5573 5576 5580 5583 5587 5590 5594 5598 5602 5606 5610 5615 5619 5623